User: anonymous   Login
Location: Unspecified
(0.0000°N, 0.0000°E)
Time: 11:55:27
(UTC+00:00)
Language:

USA 148 - Orbit

View from above orbital plane
View from above orbital plane
View from above satellite
View from above satellite

Ground track
Ground track

The orbit data is extracted from the following two-line orbital elements,

1 26052U 00001A   17230.73709221 0.00000000  00000-0  00000-0 0    03
2 26052   6.8223  52.9623 0003036  13.2649 346.7789  1.00270000    06
Epoch (UTC): 18 August 2017 17:41:24
Eccentricity: 0.0003036
inclination: 6.8223°
perigee height: 35774 km
apogee height: 35799 km
right ascension of ascending node: 52.9623°
argument of perigee: 13.2649°
revolutions per day: 1.00270000
mean anomaly at epoch: 346.7789°
orbit number at epoch: 0

The dashed part of the orbit path shows where the satellite is in the earth's shadow,  

DLR